Theta_e
326 326 328 327 329 329 328 328 327 326 326 326 325 325 325 325 325 325 324 323 323 324 325 327 327 327 326 326 326 326 327 326 326 324 324 326 327 327 326 327 325 321 318 312 311 313 316 315 314 315 316 317 317 319 320 321 325 324 327 327 325 331 330 331 330 326 325 321 320 320 320 322 319 318 317 316 318 317 320 326 329 332 337 338 337 335 336 336
325 325 327 327 328 329 328 328 327 327 326 327 326 325 325 325 325 325 324 324 324 325 325 326 326 326 326 326 325 326 326 324 323 323 324 325 326 327 326 326 323 320 319 312 310 313 317 318 313 315 319 320 317 318 321 322 321 324 329 326 326 334 331 327 325 323 321 319 320 320 320 321 320 318 317 317 317 317 319 321 329 338 338 336 336 336 336 336
325 325 326 327 327 328 328 328 328 328 327 327 327 326 325 325 325 325 325 325 325 325 325 325 326 326 326 326 325 325 324 321 322 322 325 325 325 327 326 326 322 320 320 313 311 312 313 315 312 315 319 319 317 318 321 322 321 324 323 323 332 333 324 320 318 320 319 319 321 319 319 319 319 318 316 318 318 317 318 321 328 336 338 339 336 335 336 335
324 325 326 327 327 327 327 328 328 328 327 327 327 326 325 325 325 325 325 325 325 325 325 325 326 326 326 325 324 324 320 323 325 323 324 325 325 325 326 326 322 322 318 312 315 314 311 311 311 315 319 320 317 316 321 322 320 322 319 323 330 323 319 319 316 319 318 318 320 319 319 318 318 317 317 319 318 317 317 319 325 333 336 338 335 334 335 335
321 324 325 326 326 326 326 327 328 328 328 327 327 326 325 325 325 325 325 325 325 325 325 325 325 325 323 322 322 321 322 329 330 324 324 325 325 325 326 326 324 323 315 312 316 315 312 312 315 318 318 318 314 314 321 322 319 320 319 322 323 319 319 319 316 318 317 318 319 319 319 318 317 316 317 318 318 319 316 316 319 326 333 336 335 334 334 334
320 321 324 326 326 325 325 326 327 328 327 327 327 327 326 326 326 325 325 325 325 325 325 324 324 320 318 319 320 320 325 331 325 322 325 324 325 325 326 326 322 321 315 312 314 314 316 318 325 327 319 316 314 314 317 318 319 319 320 320 319 319 319 317 317 319 318 319 319 320 318 317 317 317 317 317 318 318 316 317 317 321 331 335 333 333 333 334
319 319 320 323 326 325 325 325 326 327 327 327 327 326 326 326 326 326 325 325 325 325 324 324 322 317 315 317 319 321 326 328 319 318 324 324 325 325 324 324 320 318 316 314 313 314 317 322 330 328 318 317 314 313 314 316 318 318 320 319 317 318 318 316 317 318 319 319 319 318 317 317 318 318 316 316 317 316 316 320 317 319 328 333 332 332 332 333
318 319 318 321 325 325 325 325 325 326 326 327 327 326 326 326 326 326 326 325 325 325 325 323 320 315 315 317 319 323 326 326 317 314 321 323 324 324 324 323 321 317 314 315 314 313 315 320 324 320 314 315 313 313 313 314 317 318 319 318 317 316 315 316 316 318 318 318 317 318 318 317 317 317 316 316 317 316 318 323 323 322 328 332 332 332 331 331
317 319 321 322 325 325 324 325 325 325 325 325 326 326 326 326 326 326 325 325 325 325 325 323 319 314 315 318 321 326 325 322 317 313 318 323 324 324 324 322 319 316 313 315 315 313 314 316 317 315 313 313 312 312 312 314 317 318 318 318 318 315 314 315 315 316 317 317 317 318 318 316 315 315 317 317 316 315 320 327 329 328 329 332 332 331 330 330
315 318 321 322 324 324 323 323 324 324 324 324 325 326 325 325 326 325 326 325 325 325 324 323 321 315 316 319 322 326 324 321 320 316 315 320 324 323 324 323 319 316 314 314 314 313 314 314 313 313 312 312 312 312 312 315 317 317 319 318 317 315 315 315 315 315 316 317 316 318 318 315 315 315 317 318 315 316 321 325 329 330 330 331 330 330 330 330
314 316 320 321 322 324 323 323 324 324 323 324 325 325 325 324 324 325 325 324 324 324 323 323 320 316 316 319 323 326 324 321 323 322 316 315 321 323 324 324 322 318 314 313 313 313 314 314 312 311 311 312 311 312 313 314 315 317 318 317 316 315 315 315 315 315 315 315 316 318 317 315 316 315 319 319 314 318 323 322 324 329 330 330 330 330 330 329
312 315 318 321 322 324 324 324 325 324 323 324 324 324 324 324 324 324 324 324 323 323 323 323 318 315 317 320 323 324 324 323 324 326 320 313 316 320 322 323 324 321 316 313 313 315 316 314 312 311 312 311 311 312 312 313 314 317 317 316 316 315 315 315 315 315 315 315 316 316 316 316 317 317 319 317 313 317 322 322 322 324 324 326 328 329 329 328
312 314 317 320 323 324 324 324 324 324 323 324 324 324 324 324 324 324 324 323 323 322 321 319 315 315 318 321 321 320 322 322 322 326 322 314 313 316 317 319 321 320 318 316 315 316 316 316 313 311 311 311 311 311 312 313 313 316 316 316 317 314 316 317 315 316 316 315 315 314 315 319 319 317 317 315 313 314 318 321 321 321 320 321 324 327 328 326
311 313 316 320 323 324 324 323 324 324 324 324 324 323 324 323 324 323 323 322 322 321 318 315 314 316 319 320 318 318 319 318 320 324 321 315 314 315 316 316 315 315 316 317 316 316 317 318 314 311 312 312 312 311 312 314 315 316 314 316 319 317 320 319 315 316 316 315 315 313 315 320 321 318 316 315 314 314 316 318 320 320 318 319 321 325 327 326
311 311 315 320 323 324 324 323 324 324 324 324 323 323 323 322 323 322 322 321 320 319 315 313 314 317 321 321 315 315 316 316 320 322 320 316 314 314 314 314 313 312 314 315 314 315 316 316 312 311 312 312 312 312 312 315 315 314 315 318 319 317 323 321 314 316 316 315 314 313 315 318 319 318 315 314 315 315 316 316 317 320 318 317 320 324 327 326
312 311 314 319 322 323 323 323 324 324 324 324 323 323 322 322 322 321 321 320 319 318 314 313 313 316 322 321 315 314 314 315 319 319 318 316 315 314 313 313 313 312 312 313 312 313 313 313 311 312 313 312 312 312 313 315 315 315 316 322 321 317 320 319 315 316 316 315 313 313 316 317 317 316 313 313 314 314 316 316 316 319 318 318 320 323 327 328
313 312 314 320 323 323 322 323 324 324 323 323 323 322 322 322 321 320 320 318 317 316 314 313 311 314 320 316 312 314 313 314 315 315 315 314 314 314 312 312 312 311 312 311 311 311 311 311 312 313 313 312 312 313 314 314 316 316 314 318 322 318 317 318 318 317 316 315 314 313 315 317 316 314 313 314 315 315 315 316 315 316 317 318 320 324 326 328
314 313 315 321 323 323 322 323 323 324 323 323 322 321 321 320 319 319 317 315 313 312 312 312 312 318 322 314 311 313 312 313 314 313 314 313 313 312 312 312 311 310 311 311 311 311 311 312 312 312 313 313 312 312 315 319 321 321 316 314 317 317 315 318 318 317 316 315 315 314 314 316 317 314 315 315 314 315 316 316 315 314 315 316 320 324 324 325
315 314 316 321 323 323 323 322 323 323 322 321 320 319 319 318 317 316 315 314 313 314 315 313 313 321 322 315 312 312 312 313 313 313 313 313 313 312 311 311 311 311 311 313 313 311 312 314 313 312 313 312 312 310 314 320 322 321 319 315 315 316 315 317 319 317 315 314 316 316 313 314 315 314 316 316 315 315 315 315 315 316 316 315 317 320 321 322
315 314 316 321 323 323 322 322 322 322 320 319 318 317 317 317 317 317 315 314 315 315 316 313 313 318 318 315 314 312 313 312 312 313 313 313 312 312 311 310 311 311 311 313 313 312 313 314 312 311 311 311 312 311 311 314 315 315 316 315 315 317 315 317 319 316 314 315 316 316 316 315 314 315 315 315 316 316 316 315 315 316 317 317 316 317 318 319
316 315 318 321 322 322 322 322 322 320 319 318 317 317 317 317 318 318 315 315 315 313 313 310 312 316 316 314 313 313 313 312 313 313 313 313 312 312 312 310 311 312 311 312 313 312 312 313 313 311 311 311 311 312 311 311 311 313 317 317 314 317 318 315 316 315 313 314 316 317 315 315 315 314 314 314 315 316 316 315 315 315 317 318 318 318 317 315
316 317 319 321 322 322 322 322 321 320 319 317 317 316 316 315 316 316 315 315 315 313 312 309 311 315 314 313 313 313 313 313 313 313 313 313 312 313 312 311 311 311 311 312 313 312 311 311 313 311 311 311 311 312 311 311 311 315 320 318 315 317 317 315 315 315 313 314 317 318 315 314 315 314 312 313 315 315 314 314 315 315 316 317 318 320 319 317
318 318 320 321 322 321 322 321 320 319 317 316 317 316 315 314 314 314 314 316 315 314 312 309 311 314 314 314 314 312 312 312 313 313 312 312 313 314 312 310 310 311 311 311 312 312 312 311 312 312 311 311 312 311 311 311 312 317 319 318 319 319 316 315 315 314 313 313 315 317 316 315 314 314 315 314 314 314 313 314 314 315 316 317 317 319 320 319
319 319 320 321 321 321 321 320 319 317 316 316 316 315 314 314 314 314 315 316 314 314 313 310 310 312 314 315 313 312 311 312 313 313 312 312 313 314 312 311 310 311 310 311 312 312 313 312 311 313 312 311 312 312 312 311 313 319 320 319 321 320 318 317 316 315 313 313 315 314 314 318 316 314 315 314 314 313 314 315 314 316 316 316 318 318 318 320
320 320 321 321 321 321 319 318 317 316 316 316 316 315 313 314 314 313 317 318 314 313 312 311 310 311 313 313 312 312 312 312 314 313 311 312 312 313 312 311 310 311 311 311 312 312 313 312 312 313 313 313 313 314 316 315 314 317 321 321 320 321 322 319 318 318 315 315 317 312 313 326 329 319 315 313 313 312 313 315 315 315 316 316 317 317 319 321
321 321 321 321 320 319 318 318 317 316 316 315 315 314 314 314 313 313 319 318 315 313 312 312 312 312 313 312 312 313 312 312 313 312 311 312 312 312 312 312 312 311 311 311 312 314 314 312 313 313 314 317 316 316 319 318 314 314 319 322 323 326 326 323 320 320 319 316 316 313 313 324 327 321 321 317 315 315 312 314 315 313 315 317 317 318 323 325
321 321 321 320 319 318 318 318 316 316 316 316 315 314 314 314 312 315 321 318 316 314 310 310 312 313 313 312 312 312 312 313 313 311 312 312 311 311 311 313 312 311 312 312 314 316 314 312 314 315 316 318 316 315 318 318 316 317 322 326 327 326 326 327 322 320 322 318 318 321 316 317 319 320 322 319 316 316 314 314 317 315 316 319 319 321 324 326
321 320 320 319 319 319 318 317 316 316 316 315 314 314 315 314 312 315 319 318 317 313 310 309 310 312 312 312 311 311 311 313 313 313 311 311 311 310 312 312 312 314 313 313 315 315 315 315 317 317 316 317 316 319 322 318 317 321 324 327 328 326 329 332 325 321 320 316 321 328 318 315 324 328 326 319 314 316 318 318 317 318 319 319 319 321 322 326
321 319 319 319 318 318 317 316 316 316 315 315 314 314 314 313 313 314 316 317 314 310 310 310 310 312 313 311 312 311 311 312 314 314 311 311 311 309 312 312 313 317 316 316 318 317 315 315 317 318 316 318 321 326 328 320 316 321 324 327 330 332 332 328 327 326 319 315 325 331 320 315 323 331 325 315 314 318 320 320 318 317 318 317 319 321 324 327
320 319 319 318 317 317 316 316 316 315 315 315 315 315 313 313 314 316 316 316 313 310 310 310 311 313 312 311 311 311 312 313 313 312 311 312 311 309 311 312 314 321 323 324 324 319 314 311 315 319 316 319 321 321 323 322 319 321 325 328 326 330 333 331 333 329 317 321 334 334 324 314 317 328 325 315 318 321 318 318 319 322 322 320 324 327 328 329
319 318 318 317 316 316 316 316 315 315 315 315 315 313 313 313 314 316 316 314 314 312 310 311 313 312 311 311 311 311 313 313 312 311 312 312 311 310 311 312 315 320 322 323 322 319 316 313 315 318 315 317 320 317 318 321 322 323 328 326 319 324 335 335 331 322 317 328 333 326 321 315 316 326 325 318 320 319 317 318 321 329 329 324 326 326 327 329
318 318 317 316 316 316 316 315 315 315 314 315 314 311 313 315 315 316 315 313 314 313 310 312 313 312 311 311 312 312 314 314 312 312 312 312 311 311 312 314 315 315 316 320 321 318 318 316 316 316 313 316 320 319 317 317 320 323 324 320 315 320 326 325 324 323 323 327 322 315 317 318 318 320 319 318 318 316 316 320 326 332 329 325 325 325 324 327
318 318 316 315 316 315 315 315 315 315 315 314 312 311 314 317 317 316 313 313 315 312 311 313 313 312 311 311 312 313 315 315 312 312 312 312 312 311 313 317 316 315 318 321 321 317 318 319 317 315 315 315 318 317 315 317 319 319 318 316 319 323 318 316 322 322 322 323 317 311 315 319 319 318 318 317 315 314 316 322 331 331 328 329 327 325 326 324
318 317 315 314 315 315 315 315 315 315 314 313 311 312 315 317 317 315 312 313 314 311 310 313 313 312 311 311 313 314 316 315 311 312 312 312 313 311 313 314 314 320 322 319 317 317 319 320 317 316 315 315 317 317 317 320 319 318 320 318 319 324 323 321 323 322 321 321 316 311 315 322 320 316 318 317 314 316 320 325 330 326 324 328 326 325 327 324
317 315 314 314 314 314 315 315 315 314 313 312 311 313 316 317 316 313 312 312 312 310 311 313 313 312 312 313 313 314 318 316 312 312 313 312 312 311 312 311 313 320 321 315 315 315 315 317 318 318 316 315 317 319 320 318 316 319 322 319 317 323 331 329 325 328 326 320 317 314 319 326 320 313 316 315 314 315 317 320 322 321 321 322 323 324 325 324
314 313 313 313 313 313 314 315 314 314 312 311 312 314 315 315 314 313 312 312 310 310 312 314 313 312 312 313 313 314 317 317 314 313 313 313 311 312 312 311 313 315 315 315 317 315 313 315 317 317 315 314 315 318 319 317 317 319 319 322 322 321 329 326 317 318 318 316 321 318 317 323 318 314 318 315 313 314 313 314 316 319 320 319 321 324 324 325
312 312 313 312 313 313 314 314 314 313 312 311 313 314 313 313 314 314 312 311 310 311 313 314 314 312 312 313 313 315 316 316 314 312 314 313 312 312 312 312 313 313 313 315 316 316 317 317 315 316 315 314 314 316 318 316 317 319 318 321 320 316 322 325 317 315 313 315 323 318 315 321 318 319 324 317 313 315 314 315 314 315 318 320 322 324 324 325
312 312 313 312 312 313 313 313 312 312 311 311 314 315 312 312 315 314 312 311 310 311 312 314 313 312 312 313 312 314 316 315 313 314 314 313 314 314 311 311 313 312 314 314 313 316 321 319 314 313 316 316 314 316 317 315 313 317 319 319 320 318 320 322 317 319 317 315 322 321 317 319 318 321 325 317 317 321 316 315 314 314 317 320 323 325 323 323
312 313 313 312 312 313 312 312 311 311 311 311 314 314 312 314 317 314 311 310 310 311 312 312 312 312 313 313 313 314 314 314 313 314 314 313 315 316 311 311 314 313 313 314 316 318 321 323 318 313 315 316 314 315 318 316 313 316 317 315 318 320 322 322 317 321 324 319 322 323 317 321 324 324 322 316 319 323 317 315 314 312 315 318 322 325 322 322
313 314 313 311 312 312 312 311 311 311 311 311 313 315 313 315 318 314 311 311 311 312 312 312 312 312 313 313 314 314 314 314 313 314 315 314 313 314 312 311 313 314 313 313 317 318 316 322 323 315 313 314 316 317 318 317 314 316 317 314 315 315 317 321 319 323 328 322 322 320 318 330 334 323 319 315 314 317 317 318 316 313 313 316 320 322 321 320
314 314 313 311 312 312 311 311 311 311 311 311 311 314 315 316 317 314 312 312 313 315 315 313 312 311 313 314 314 314 314 315 314 313 316 314 312 313 313 312 312 313 313 313 316 319 315 317 321 317 314 317 320 319 318 318 315 315 315 315 316 315 316 318 318 321 323 320 324 320 317 333 337 321 318 315 312 315 315 315 317 314 313 314 317 319 320 320
315 314 312 311 311 312 311 312 312 310 311 312 312 316 318 317 317 314 313 313 316 320 317 312 312 312 313 314 314 315 314 315 314 314 316 314 312 314 314 313 313 312 313 314 314 320 321 319 321 319 317 318 319 317 316 318 318 317 316 316 314 314 318 318 317 321 319 316 321 319 314 328 335 324 320 319 318 318 316 315 317 316 312 312 317 319 318 318
314 313 311 311 311 311 312 313 312 310 312 313 315 318 318 316 315 315 316 315 316 321 317 312 312 313 314 314 314 315 314 315 315 313 315 315 313 317 318 314 314 313 313 314 314 318 322 321 321 319 317 319 321 318 315 315 316 317 316 316 316 316 317 318 321 324 323 319 318 315 314 325 335 328 321 321 320 317 315 315 318 320 316 314 319 320 317 317
313 312 311 310 310 311 312 313 312 311 312 313 316 319 318 317 317 316 316 315 318 322 316 313 313 313 315 314 314 315 314 315 316 314 317 316 314 321 323 315 314 314 312 313 315 315 317 319 321 320 318 320 322 319 315 314 316 318 318 316 317 318 316 316 318 317 319 324 321 316 315 321 331 329 320 318 319 316 316 315 316 322 322 319 320 319 317 317
312 312 312 310 309 311 312 312 311 311 311 313 317 319 317 318 319 319 317 317 323 327 320 316 317 316 317 315 314 315 314 316 318 316 317 317 315 322 324 316 313 314 313 315 315 314 318 321 319 319 319 317 317 317 318 319 318 319 320 318 317 319 316 317 320 315 318 326 322 317 316 315 321 324 318 317 320 317 317 316 313 316 320 320 320 318 317 317
313 313 313 311 311 312 313 313 313 311 310 313 316 317 317 317 318 320 319 317 321 327 325 322 320 318 317 315 315 315 313 318 322 318 317 319 319 321 321 318 315 315 319 321 316 316 324 323 316 316 316 314 316 319 319 320 319 316 318 319 317 318 317 319 323 318 317 322 321 320 320 314 314 317 315 318 322 319 318 318 314 313 317 320 319 317 317 316
313 312 312 312 312 312 313 314 315 311 309 312 315 315 316 317 316 317 318 318 320 325 325 322 319 317 316 315 316 315 313 318 321 318 318 321 319 316 316 319 318 317 320 319 315 318 322 318 316 316 315 315 322 323 317 316 317 315 317 318 317 319 319 319 320 316 315 317 317 318 320 316 313 313 314 317 319 319 321 322 318 314 317 322 321 318 317 315
310 311 312 312 312 313 313 314 314 311 310 312 314 314 315 317 316 316 318 319 319 323 324 320 317 318 317 315 316 315 315 317 318 318 320 319 317 315 316 317 316 316 317 313 314 322 320 315 317 316 313 316 322 323 317 315 317 316 316 317 317 318 320 319 317 317 317 317 313 314 317 316 313 312 315 316 314 315 318 319 317 314 318 324 322 319 318 316
308 311 311 310 311 312 313 313 313 311 310 313 314 314 315 316 315 317 320 320 317 320 323 319 317 319 318 316 316 315 316 316 316 318 319 315 315 318 318 316 314 316 316 312 314 319 317 317 320 316 312 315 321 322 318 316 318 317 316 317 316 317 318 318 316 316 316 316 314 314 316 315 313 312 314 315 315 315 314 315 315 316 321 325 322 319 318 316
308 310 309 310 312 312 312 313 313 312 311 313 315 313 313 315 315 317 320 319 316 318 319 318 318 320 319 318 318 316 315 316 317 318 316 313 315 317 317 317 316 315 314 312 313 313 314 320 321 315 312 315 318 320 318 317 318 317 317 317 316 316 317 316 316 315 315 316 314 315 316 314 312 312 314 318 318 314 311 314 316 316 318 321 321 319 317 315
302 302 305 311 312 311 312 313 313 313 312 312 315 314 313 313 314 317 318 318 318 318 317 317 318 319 318 318 319 318 316 318 318 316 314 314 314 315 317 318 315 314 315 315 314 313 314 318 317 314 315 315 315 317 318 317 317 317 319 318 315 315 315 315 315 315 315 316 315 315 315 313 312 314 315 316 317 314 314 318 318 316 316 319 321 320 317 315
301 302 307 313 313 311 312 313 314 314 313 312 313 313 313 313 314 316 316 318 321 320 318 318 317 317 318 318 319 319 319 319 318 316 315 315 314 317 321 318 312 313 315 315 316 317 317 318 317 316 317 315 313 317 319 318 316 316 317 317 314 314 314 314 315 315 314 315 315 315 314 312 313 316 315 312 314 315 317 318 318 317 317 317 317 318 316 314
Wind_Speed
39 41 43 42 41 42 42 41 41 39 39 38 37 36 34 32 31 30 30 29 27 25 23 21 20 20 20 16 14 15 13 11 9 8 7 8 11 13 16 14 10 9 9 8 6 7 6 13 16 14 11 10 5 2 2 3 1 3 2 2 4 3 4 5 6 6 6 6 6 7 5 8 5 1 1 3 6 6 6 6 3 7 8 8 14 27 32 31
34 39 40 41 41 42 43 42 41 40 39 39 37 36 35 34 32 30 30 29 27 25 24 22 22 21 20 17 15 15 12 10 5 7 14 12 10 12 14 14 11 10 9 10 10 10 8 8 9 8 6 4 5 4 3 2 0 3 2 1 4 4 5 5 6 7 7 9 8 7 6 7 7 6 3 3 5 5 7 4 4 8 8 10 18 26 29 30
29 37 39 41 42 41 42 42 42 40 39 39 38 37 36 35 33 31 30 30 27 25 26 24 23 21 20 18 16 14 11 7 3 7 18 17 12 11 14 13 13 10 8 8 8 12 11 6 7 5 3 2 3 3 3 2 1 2 2 1 5 5 4 5 4 9 7 10 11 7 6 6 6 6 4 5 7 6 7 4 4 6 7 8 12 20 25 26
25 32 38 41 42 43 42 42 42 40 40 39 38 37 37 36 34 32 30 29 28 26 27 26 24 22 21 19 16 14 10 5 2 8 14 18 15 12 16 15 14 11 9 8 5 5 10 10 8 4 4 2 3 3 3 3 2 1 3 4 5 2 2 7 4 4 8 11 11 8 6 6 5 5 5 7 7 4 6 8 9 11 12 11 10 16 22 22
22 26 34 38 40 43 42 42 41 40 40 39 38 38 37 37 34 33 31 29 28 27 27 26 25 23 21 18 17 16 10 2 4 9 11 14 15 13 16 16 13 12 11 9 8 5 6 10 7 3 3 1 3 3 4 5 2 1 4 6 5 1 2 5 7 2 5 9 8 8 8 6 5 4 6 9 7 6 6 9 11 14 16 16 15 17 18 19
22 25 30 36 41 44 44 42 41 40 40 39 39 38 37 37 35 34 32 30 28 27 26 26 25 23 20 20 21 15 8 2 1 8 13 14 15 17 19 18 12 12 11 10 12 10 5 7 5 2 2 1 4 5 6 5 3 2 5 4 3 2 2 3 6 6 1 9 8 8 6 6 7 3 5 8 6 7 6 8 11 14 19 21 19 18 15 15
22 27 29 33 39 44 45 45 42 40 40 40 39 38 37 37 35 34 33 31 29 27 26 26 24 23 23 23 19 8 3 3 1 4 13 18 19 20 22 18 13 13 12 11 14 10 5 5 2 2 1 2 5 7 7 6 4 5 6 3 3 2 1 3 4 6 3 9 7 6 6 7 8 4 4 5 4 5 4 4 10 16 21 22 18 15 15 17
22 27 31 33 39 44 44 45 44 41 40 40 39 38 37 36 36 34 33 32 29 28 27 25 25 26 27 23 12 2 3 4 3 3 11 22 23 23 23 18 15 17 16 13 13 13 8 4 2 2 2 4 6 5 7 6 3 5 5 3 1 2 2 3 4 6 5 4 2 7 6 5 6 4 4 6 5 5 4 6 12 15 17 17 15 14 14 16
24 26 31 34 40 47 45 42 42 41 40 39 38 38 37 36 35 34 33 32 31 30 28 27 27 27 27 19 6 2 6 8 7 7 7 19 24 27 26 20 19 18 17 14 12 18 14 4 3 3 2 6 6 6 7 5 4 5 6 3 2 1 2 2 3 5 4 3 3 8 5 1 2 2 3 7 8 6 4 10 12 13 13 12 12 13 14 15
28 28 31 31 34 45 48 44 42 41 40 39 37 37 37 36 35 33 32 31 31 30 28 28 27 28 25 13 5 4 8 12 8 5 5 13 22 28 28 24 22 19 15 11 10 14 11 7 6 3 4 6 5 6 6 4 4 3 4 4 4 2 2 1 1 2 3 3 3 7 5 1 2 0 3 5 8 7 7 10 10 12 12 11 10 11 14 16
32 30 31 31 32 41 48 47 44 42 41 39 38 37 37 36 34 33 32 30 30 30 28 26 26 28 21 11 8 6 5 12 14 6 3 8 21 27 28 27 24 22 17 11 11 11 11 15 11 2 3 3 4 6 5 4 3 2 5 3 2 2 0 1 2 1 2 2 2 6 4 1 4 0 5 6 8 9 10 10 8 10 10 10 11 10 11 14
35 34 31 33 36 41 45 45 44 43 41 40 38 37 37 36 34 33 31 29 28 28 26 24 27 27 15 6 8 7 4 10 15 15 6 5 16 25 27 28 27 26 20 14 12 11 14 17 9 2 4 2 3 5 4 4 4 2 5 1 3 4 2 2 2 1 1 1 2 4 3 3 1 5 8 5 8 8 10 10 8 8 8 9 10 9 9 13
37 37 34 35 39 43 46 45 45 43 41 40 39 37 37 35 33 32 30 29 27 26 26 27 29 24 11 3 6 7 7 10 12 17 14 7 10 20 23 25 26 26 23 20 17 17 18 15 7 5 8 4 4 4 3 3 1 2 2 3 1 4 3 5 3 2 2 1 3 2 2 5 6 10 7 5 8 8 9 9 8 7 7 7 8 8 9 13
38 40 37 37 39 44 47 47 46 45 42 40 39 38 37 35 34 32 30 29 27 25 27 29 28 20 9 3 3 7 10 9 11 16 18 13 13 17 16 19 21 20 22 23 22 22 20 17 11 7 6 5 5 4 4 4 1 2 2 1 2 1 4 6 2 4 3 1 1 3 3 6 7 9 6 6 8 9 9 8 8 7 7 6 7 8 8 11
39 42 40 39 40 42 45 46 46 46 43 40 39 38 37 35 33 30 29 28 24 25 27 23 18 12 4 3 3 8 11 10 12 18 21 19 18 15 13 19 18 14 18 17 15 19 20 17 11 6 5 4 4 4 4 3 2 0 3 4 1 3 4 7 2 5 5 1 1 3 3 5 7 8 5 7 8 8 9 8 7 8 8 7 7 8 7 8
42 44 42 42 42 42 45 45 44 45 44 41 40 38 38 36 33 31 28 25 23 25 26 15 6 4 3 2 3 8 10 10 15 20 23 23 21 16 16 20 16 13 14 12 9 14 19 14 5 2 4 3 3 4 3 3 3 1 3 3 2 4 3 4 4 4 3 2 1 2 3 3 5 5 3 5 8 8 8 7 8 8 8 8 7 7 7 6
45 46 44 45 45 46 47 45 42 43 43 42 41 41 40 36 34 32 27 26 25 24 23 15 5 3 1 3 3 8 9 9 17 22 23 22 19 20 21 15 11 12 11 9 6 8 13 9 2 1 3 3 3 4 3 4 4 3 1 2 3 4 3 2 4 4 2 3 4 4 3 4 5 4 3 4 6 8 7 7 8 7 7 7 7 7 7 7
48 49 47 47 49 51 50 47 43 41 45 46 45 44 41 37 36 34 30 30 27 21 16 11 7 2 3 7 5 7 12 13 18 22 21 18 16 21 22 11 9 12 9 5 2 4 5 4 4 3 3 4 4 5 4 5 5 3 3 3 4 2 4 5 4 3 4 3 4 5 4 8 9 5 4 6 3 6 8 8 7 7 7 7 7 8 8 8
52 52 51 49 52 55 52 50 46 44 50 50 48 48 41 34 30 29 31 28 18 11 7 6 8 3 2 9 8 7 15 18 17 18 18 16 16 20 17 11 12 11 8 5 3 4 4 3 4 6 5 6 6 6 7 7 7 7 6 6 5 4 4 5 4 5 7 4 4 7 6 9 10 7 6 7 4 6 7 6 6 6 6 7 8 7 8 9
55 56 55 51 53 57 54 51 49 51 55 54 53 43 28 21 14 12 18 18 9 3 6 10 11 1 4 3 8 10 15 17 12 12 18 19 20 16 8 7 9 6 6 8 6 5 5 4 5 6 7 7 7 6 8 9 7 4 5 6 7 7 4 3 3 5 4 5 6 8 7 8 8 8 8 7 5 6 7 7 7 8 7 7 8 8 10 10
60 60 58 54 53 57 57 55 53 56 56 58 53 26 12 16 9 9 14 8 7 2 7 17 15 1 4 0 13 19 13 8 6 8 17 21 20 14 5 6 8 5 6 7 6 4 5 7 8 9 10 9 9 8 7 9 8 2 4 6 6 6 5 3 2 3 1 2 5 5 6 9 9 9 8 5 6 8 9 9 9 10 9 7 8 9 9 8
65 64 61 58 55 57 61 59 58 59 54 54 42 13 11 13 5 17 20 6 6 3 6 14 12 1 2 2 12 18 10 6 6 8 16 17 13 9 5 6 9 7 7 6 6 5 5 7 8 10 10 8 7 8 9 10 8 2 2 4 4 4 3 2 3 2 1 1 3 2 4 9 10 9 8 5 7 9 10 11 11 11 10 8 8 8 8 7
68 67 64 60 59 60 63 63 64 59 50 44 29 13 17 15 17 33 23 6 4 5 2 7 8 2 3 5 9 9 7 9 9 10 17 15 8 6 7 8 9 8 8 9 8 7 5 5 8 8 7 7 6 7 10 9 6 3 3 4 3 3 4 2 3 1 1 1 1 1 1 7 8 7 7 8 10 8 8 12 11 10 11 11 11 10 9 9
69 68 65 64 64 62 63 67 63 52 45 39 25 19 21 21 33 40 17 6 4 6 5 10 9 7 7 9 9 9 5 5 7 12 19 17 8 5 8 10 10 8 9 12 12 10 6 6 8 8 8 10 8 6 9 7 4 4 3 5 3 3 4 2 2 2 3 3 0 3 4 6 5 6 8 8 8 7 7 9 10 10 10 10 9 10 10 10
71 69 66 68 65 66 69 61 48 43 40 30 22 24 25 27 38 34 14 5 3 2 5 9 8 9 13 12 9 8 4 1 2 10 18 17 9 6 6 6 7 9 11 12 11 8 7 6 8 9 8 10 9 6 7 8 4 5 4 5 5 5 4 4 5 4 4 4 3 2 1 6 4 5 9 6 5 7 7 9 12 12 10 8 9 9 9 9
73 69 70 71 67 72 63 36 33 42 32 18 24 32 30 33 35 26 12 4 2 3 5 7 6 11 17 13 8 5 5 3 2 7 16 14 7 5 6 5 2 6 10 9 5 4 3 2 7 11 9 9 9 6 6 7 6 4 5 4 6 7 7 7 6 3 2 3 3 3 4 5 6 5 8 5 5 9 7 8 11 11 9 9 9 9 8 8
73 71 74 70 71 74 44 19 34 39 21 16 33 38 32 36 30 15 8 2 2 5 6 5 5 11 14 12 13 8 5 6 3 5 11 9 5 2 5 7 3 5 7 5 3 2 3 4 6 10 8 8 8 6 6 6 6 4 4 4 8 8 8 7 6 3 2 3 3 3 4 3 5 6 8 5 4 7 7 8 10 9 9 9 9 8 8 8
73 74 74 71 78 73 41 35 43 29 22 29 39 40 35 37 25 7 6 3 3 5 6 5 5 11 10 7 11 3 3 9 7 5 7 6 4 3 3 7 5 8 5 5 6 3 3 8 8 10 8 5 6 5 6 8 6 5 5 6 7 7 8 7 6 3 1 1 3 5 1 2 5 7 6 4 3 6 7 9 10 9 9 9 9 9 8 8
75 75 74 78 74 52 38 48 40 25 36 42 36 39 36 29 15 4 3 5 3 4 6 7 6 9 8 5 7 2 2 6 3 5 6 5 4 2 4 6 5 7 0 2 8 2 1 6 7 10 8 6 6 4 6 8 5 5 3 5 4 4 5 5 5 4 3 1 5 6 2 2 5 6 4 3 2 6 8 8 8 9 9 9 9 8 7 6
76 75 77 79 57 34 35 37 30 33 46 41 34 37 32 18 7 4 7 5 4 3 4 6 6 8 12 10 7 4 4 2 2 6 5 3 2 2 2 3 5 6 4 5 4 1 2 1 0 3 4 5 6 3 2 5 6 5 5 6 6 5 5 4 3 4 2 3 6 7 5 4 3 6 4 4 5 6 7 6 7 8 7 7 7 6 6 5
75 74 78 71 45 39 37 22 28 46 46 41 38 32 21 7 1 6 9 4 5 4 4 7 7 9 16 16 9 6 5 2 4 11 8 4 2 0 1 3 3 4 3 4 3 4 4 3 1 1 1 2 6 5 3 2 6 6 5 5 4 3 4 4 4 3 2 5 6 5 2 4 4 5 5 6 6 5 6 6 8 8 6 5 5 5 6 5
73 76 76 59 41 42 35 25 42 53 47 45 36 19 11 5 2 4 6 7 5 6 8 11 13 12 16 16 10 7 6 3 5 11 11 8 6 6 4 5 5 4 3 3 2 3 4 2 2 4 3 1 6 5 3 4 3 5 5 6 4 1 3 2 2 1 3 5 4 3 1 3 5 7 8 9 10 9 7 6 7 7 6 6 6 5 5 5
73 76 65 46 38 37 35 40 51 51 48 42 24 9 7 7 7 6 6 8 6 10 12 12 16 17 17 14 8 6 5 3 7 8 7 7 7 7 4 4 7 6 4 5 4 3 1 4 3 3 2 1 4 6 3 1 2 4 6 6 5 3 3 2 3 1 3 5 4 3 2 3 3 5 10 13 15 12 7 6 7 8 9 8 7 6 5 5
74 68 48 35 36 38 43 50 52 52 47 30 13 9 10 8 8 8 8 7 6 12 13 11 16 16 14 12 8 7 4 2 7 9 7 7 6 7 6 6 7 5 5 5 4 5 4 2 2 2 1 1 2 3 5 6 5 4 6 6 5 5 4 4 3 3 4 4 3 3 1 3 3 4 7 10 11 8 3 5 4 5 6 6 6 5 5 6
66 53 39 34 37 41 49 51 52 53 38 17 9 10 11 10 8 9 9 6 6 11 12 13 16 14 11 8 6 9 5 2 6 7 7 8 8 9 8 6 7 5 6 6 3 2 5 2 3 2 1 1 2 3 1 6 4 3 3 5 4 5 4 3 3 5 5 1 1 2 3 5 4 6 8 6 6 4 1 1 2 3 3 4 5 5 5 5
50 38 34 33 36 43 51 51 51 47 26 12 11 9 9 10 8 9 9 8 10 13 15 15 13 12 9 4 6 10 4 3 8 6 4 6 6 9 9 7 8 7 7 7 3 2 4 1 5 3 2 1 2 3 2 3 3 1 3 4 5 4 6 4 1 1 3 1 3 2 3 5 3 6 9 5 6 5 3 4 3 4 4 4 5 5 5 5
35 28 24 24 34 46 51 52 49 37 17 11 13 10 8 7 6 8 9 10 13 16 18 13 8 11 11 8 10 12 6 5 9 8 6 6 4 9 10 7 8 10 7 5 3 3 5 1 4 2 0 2 2 1 2 2 2 4 4 6 4 3 4 3 2 1 3 2 4 1 5 5 2 3 6 5 3 7 7 6 6 6 5 6 6 6 6 6
28 24 15 18 38 47 48 49 41 24 10 8 13 12 8 4 4 8 11 13 16 17 15 11 8 9 11 11 11 12 11 8 8 7 6 6 5 8 13 8 6 10 8 4 3 3 5 3 3 1 1 4 2 2 1 3 1 3 4 3 4 3 1 2 3 1 1 3 4 3 4 4 3 5 5 4 5 8 9 8 7 7 7 6 6 6 6 5
24 16 7 17 40 46 46 43 29 14 7 9 12 10 7 4 4 10 16 16 16 15 13 10 9 8 8 10 11 11 11 9 10 7 5 6 4 6 14 9 5 10 10 5 4 4 4 4 2 1 1 2 2 1 4 2 2 1 1 1 2 2 4 3 4 4 3 3 4 3 2 3 5 6 5 7 9 10 10 8 8 9 8 7 7 7 6 6
14 8 4 22 41 45 44 33 15 9 9 11 10 6 7 7 3 10 19 18 12 8 9 10 11 10 8 9 11 11 8 7 11 7 3 7 4 5 11 10 7 11 11 6 4 4 3 3 2 1 2 1 2 3 6 7 4 2 2 3 2 1 2 1 1 3 4 3 4 3 3 5 6 5 7 11 11 10 9 7 8 9 8 8 8 7 7 7
8 7 5 25 44 45 36 18 8 10 9 9 8 4 7 6 4 10 19 19 11 3 5 11 12 11 10 10 11 10 7 7 10 7 3 7 7 4 8 11 10 11 10 6 5 4 3 3 4 2 1 3 4 4 4 6 6 6 5 7 7 4 4 3 3 2 2 3 4 4 4 7 6 4 6 8 8 7 7 8 8 8 9 9 7 8 8 7
7 7 9 31 48 43 26 10 10 11 6 7 6 2 5 6 6 10 13 14 10 2 4 8 9 10 10 10 11 10 8 8 10 9 5 8 10 6 8 12 13 13 12 6 5 4 3 4 4 2 3 4 6 5 1 2 3 3 3 4 6 5 5 5 5 4 2 2 2 2 4 7 6 4 5 6 5 5 5 6 7 7 7 8 6 7 8 7
6 7 15 36 48 35 17 9 10 7 3 5 2 2 3 5 7 8 7 9 8 4 5 6 8 10 9 9 12 12 11 8 10 12 6 6 8 5 8 14 14 13 11 6 5 4 3 4 4 1 2 3 5 5 3 3 2 2 3 1 3 3 3 5 5 4 3 3 2 2 5 7 6 4 4 5 5 5 5 4 5 6 5 6 8 8 8 7
7 7 10 27 39 26 10 10 12 9 7 6 3 2 2 3 6 9 9 9 6 5 7 6 8 9 7 9 12 14 14 8 8 10 5 5 6 1 5 15 16 13 9 7 8 6 2 3 4 4 1 3 3 4 3 2 3 1 3 1 2 2 3 3 1 2 1 4 5 5 6 7 5 4 3 3 4 5 5 4 4 5 5 6 7 7 7 7
9 5 4 12 23 15 4 5 9 10 10 9 7 6 4 3 2 5 9 9 3 5 7 5 7 7 6 9 9 11 13 7 5 7 3 5 4 4 2 14 17 13 7 7 9 7 5 5 4 6 6 6 6 5 3 3 1 2 4 5 6 6 7 5 2 2 4 5 5 5 7 8 6 5 5 5 5 5 6 5 4 4 4 5 6 7 7 7
9 5 5 6 7 6 2 1 3 7 10 9 6 5 6 6 1 3 5 6 2 5 6 4 7 8 8 12 10 9 11 3 4 7 6 6 3 3 1 9 10 9 8 11 11 7 4 4 6 8 10 10 8 5 7 10 7 7 8 8 8 8 8 6 3 4 6 3 3 7 9 11 11 8 5 5 5 6 6 5 5 5 4 4 5 6 6 6
5 6 10 9 5 7 5 3 4 8 11 10 7 5 7 9 5 1 3 2 3 5 4 2 8 10 11 15 12 10 12 4 5 9 7 4 3 1 2 4 4 4 9 12 10 7 5 4 7 9 9 6 6 6 10 13 12 13 12 10 9 7 8 8 7 8 6 3 8 11 10 14 16 10 7 8 8 6 6 6 7 6 5 4 5 5 5 6
3 5 7 4 4 10 10 9 11 12 13 11 6 7 9 10 10 7 2 1 2 4 4 2 9 14 16 17 12 9 10 5 4 8 6 4 5 3 4 5 4 1 5 8 5 5 5 5 6 7 7 4 5 8 11 12 11 12 13 13 12 10 10 11 13 13 9 8 13 13 10 15 17 9 8 10 9 8 8 7 5 4 5 5 6 7 7 7
2 3 3 3 2 6 8 8 12 14 14 11 5 8 13 14 12 7 3 4 3 2 3 7 11 12 14 16 12 10 12 10 7 5 4 5 6 5 4 3 1 2 4 6 4 2 4 5 5 7 7 5 6 9 11 11 9 9 11 14 14 14 16 18 18 18 15 13 15 11 9 17 18 10 7 8 7 7 4 1 3 5 7 7 8 8 8 9
2 2 4 2 2 5 8 7 9 12 11 9 6 7 11 15 14 8 3 5 9 5 4 11 13 10 11 13 12 12 16 15 12 9 9 9 7 5 4 5 3 1 3 5 4 1 3 4 5 7 5 5 7 9 7 7 8 7 8 12 16 18 19 19 17 14 11 13 16 12 12 18 14 4 3 6 6 4 1 1 5 7 7 8 8 8 9 10
1 1 3 4 3 5 8 7 6 9 9 8 7 7 10 14 14 9 3 1 7 8 6 12 14 8 7 10 11 13 14 13 15 17 17 17 13 9 5 6 9 8 4 4 5 3 4 3 2 6 5 6 6 7 5 3 4 4 10 16 18 16 14 13 12 11 12 14 15 12 14 16 5 6 4 10 7 5 5 7 8 7 6 8 10 10 10 11
1 1 2 5 3 2 7 6 5 7 9 8 7 6 8 10 9 10 6 2 2 5 7 12 14 9 7 10 11 11 11 10 12 12 11 11 10 7 4 7 14 13 9 6 3 3 6 5 3 6 6 5 2 7 7 6 3 8 13 14 14 11 10 9 9 12 14 14 12 12 15 13 3 5 9 12 6 7 8 8 7 7 8 8 9 10 11 11
Wind_Direction
213 206 205 201 199 200 198 196 195 195 193 194 193 193 195 195 196 198 198 199 202 199 194 193 191 189 185 182 180 182 184 184 190 189 204 219 198 175 166 167 152 121 76 58 67 96 79 49 27 10 20 360 327 305 302 214 124 72 104 166 248 246 212 224 193 183 153 155 187 194 169 139 144 116 127 64 76 105 89 65 53 43 53 84 122 141 147 152
217 209 207 203 200 200 199 197 195 195 194 193 193 192 194 195 196 196 196 197 199 198 192 189 188 185 185 184 179 179 175 172 175 211 224 219 192 174 162 163 147 117 87 63 61 84 81 43 8 13 58 1 305 319 323 261 88 137 155 185 227 223 226 231 173 160 145 155 174 185 169 151 163 157 136 128 129 129 107 65 63 76 70 89 117 137 145 152
219 211 206 204 202 200 199 197 194 193 193 193 192 191 193 195 196 195 195 196 196 195 192 189 189 188 190 187 178 176 163 141 132 240 232 218 203 183 165 157 146 131 98 84 72 71 80 69 0 8 97 15 301 300 313 283 278 178 166 227 242 241 282 313 155 163 162 152 155 179 177 161 177 152 134 151 151 157 150 147 113 120 133 125 131 142 148 156
224 214 207 205 201 199 199 197 194 192 193 192 192 191 192 194 195 195 194 194 194 194 194 192 192 193 193 186 172 165 142 111 226 239 233 215 206 188 170 157 139 132 103 105 133 74 66 59 20 22 79 0 284 266 260 248 248 195 170 203 253 269 301 318 317 179 156 147 154 167 144 148 177 145 148 145 143 202 202 183 172 165 160 150 153 154 156 161
225 219 213 209 202 199 199 198 195 192 192 192 191 191 191 193 194 194 194 194 192 193 194 193 193 193 190 177 162 157 140 95 234 209 221 215 202 188 173 162 140 128 116 118 144 139 55 37 26 59 78 300 286 300 244 233 198 231 232 211 256 314 170 290 320 324 145 137 140 145 140 153 154 142 162 145 153 218 215 200 183 166 162 160 162 161 163 166
221 224 220 214 205 201 200 198 194 192 193 191 190 191 190 191 192 193 194 193 192 192 193 193 192 186 178 164 158 163 166 186 177 176 197 206 201 187 170 164 148 136 140 138 132 129 88 38 26 72 74 323 293 287 261 250 164 206 269 224 281 336 164 283 327 320 125 130 142 154 159 144 125 159 178 149 178 213 210 210 184 166 164 160 157 160 166 172
222 223 226 221 208 200 199 197 194 192 193 191 189 189 189 190 190 191 193 192 192 192 192 191 186 176 164 158 160 175 223 222 129 156 186 190 194 185 170 164 156 156 160 149 136 132 105 75 54 99 100 294 272 264 267 271 175 190 266 285 327 25 162 292 331 325 76 133 168 149 137 141 142 166 169 158 200 206 210 195 156 155 156 152 154 164 173 177
229 222 223 226 211 198 196 193 191 192 193 191 188 187 188 188 188 189 190 192 192 191 192 188 179 171 164 160 157 166 268 213 137 120 186 185 183 179 173 168 170 169 165 172 160 143 123 106 205 146 130 250 257 277 285 282 228 199 239 265 336 48 302 316 7 353 47 102 146 116 122 158 163 154 155 182 194 193 176 114 121 136 144 152 162 171 175 180
232 223 220 223 208 194 192 192 189 190 191 190 188 187 187 187 186 186 187 190 191 191 191 186 179 173 167 164 143 150 214 194 130 86 166 186 181 177 180 177 178 175 171 191 173 147 146 151 214 168 183 250 266 291 290 273 248 219 211 190 131 140 270 324 12 351 16 13 86 113 117 120 186 166 176 194 184 189 144 113 121 132 144 162 169 174 176 181
231 228 223 222 208 194 191 190 189 189 189 188 187 186 185 185 184 183 185 187 189 190 188 186 181 172 169 168 156 194 208 190 169 77 106 179 180 176 183 184 180 179 177 182 159 144 144 156 186 191 228 259 278 276 274 249 233 209 172 140 124 154 237 343 353 313 0 7 75 116 136 116 322 198 209 212 176 164 126 124 139 141 154 169 170 180 181 182
229 230 225 220 212 199 189 186 187 187 187 185 185 184 182 183 183 183 185 184 186 187 186 183 177 172 176 177 184 204 190 186 201 216 91 164 181 178 184 191 186 181 174 157 154 143 136 168 186 200 244 259 287 280 284 276 265 158 132 101 41 72 353 63 103 265 0 33 88 106 117 355 4 132 220 209 169 155 136 143 158 153 164 171 172 182 183 189
228 228 224 215 208 199 190 185 184 184 185 183 183 182 179 180 181 180 181 181 182 184 182 177 172 174 179 189 209 219 211 202 211 220 210 156 185 186 185 192 192 187 175 154 167 168 163 179 181 210 251 280 296 284 294 305 310 168 137 136 317 15 346 243 144 233 128 134 254 109 95 305 273 228 235 191 162 154 141 155 168 169 173 172 175 178 184 193
226 224 222 214 203 197 194 188 182 182 182 179 180 179 177 178 177 177 177 176 180 180 174 169 171 175 172 198 229 225 232 222 212 211 200 166 178 186 188 191 190 191 179 165 176 184 189 201 197 225 251 267 265 275 296 310 305 214 148 133 295 10 302 247 185 168 136 165 292 124 176 265 240 239 242 174 159 147 146 170 177 183 185 179 181 178 187 191
223 222 219 213 203 196 194 189 182 180 178 176 176 176 174 173 172 172 171 172 178 176 166 165 170 170 170 215 229 212 217 201 194 198 187 172 164 172 188 190 186 190 180 172 179 187 197 211 214 237 257 232 242 292 319 324 355 213 223 175 125 117 263 275 206 156 158 232 6 120 209 260 255 256 241 184 169 155 165 187 185 189 195 192 190 184 191 191
221 218 216 212 203 193 189 187 181 177 175 172 171 172 170 167 166 165 167 169 172 170 163 161 162 154 161 264 246 199 193 183 199 202 189 179 164 162 183 186 181 180 176 170 175 187 195 201 207 238 262 240 234 266 302 325 335 179 197 254 300 159 258 305 269 173 166 217 49 143 219 264 262 265 238 178 170 169 179 194 192 193 198 198 199 192 194 197
217 214 212 209 201 192 186 184 181 174 172 169 167 167 163 160 158 156 159 159 158 163 160 150 131 119 158 217 200 179 174 182 200 197 188 184 178 173 171 172 171 167 168 160 151 170 178 182 195 235 243 257 205 207 271 307 299 330 155 228 231 175 244 310 285 242 174 153 196 204 220 260 265 272 248 169 164 172 182 195 196 196 201 198 198 197 194 197
213 209 208 204 197 190 185 183 179 170 166 165 161 158 155 153 151 147 146 142 142 150 150 141 109 10 238 168 167 182 177 178 185 182 176 181 188 173 158 155 163 157 148 145 141 148 160 168 170 198 215 230 197 175 213 247 254 299 137 216 238 188 182 231 282 282 167 152 209 220 227 245 273 288 257 217 167 165 183 201 205 204 208 204 196 197 195 195
208 204 203 199 192 187 183 179 175 167 161 160 155 152 149 145 143 137 129 124 123 128 133 138 132 81 245 202 184 175 171 165 169 173 170 174 181 168 158 149 149 142 121 125 146 142 155 161 160 189 214 213 216 175 186 218 200 198 181 202 261 238 188 201 244 233 168 172 212 199 231 249 265 282 263 258 203 174 200 208 213 214 207 207 201 199 200 200
203 200 199 196 188 182 179 173 171 165 156 150 145 141 135 132 133 129 130 131 125 128 142 174 171 155 232 196 186 159 164 163 158 165 167 168 172 166 158 142 139 139 137 156 185 173 155 112 161 195 208 207 216 191 190 207 188 182 182 186 211 224 231 213 237 239 172 162 219 201 221 242 250 262 260 261 230 197 223 226 225 227 214 205 203 206 206 206
200 196 194 194 186 177 174 169 165 159 152 141 134 131 126 131 133 135 149 154 165 163 124 164 188 227 15 156 160 139 150 157 150 166 171 164 162 157 143 128 135 147 161 162 171 181 157 154 190 198 199 208 215 203 202 216 216 197 185 197 202 202 243 251 261 276 163 152 227 215 224 245 246 247 244 241 218 213 234 233 228 228 220 209 204 210 209 211
195 192 190 191 182 172 169 164 160 159 155 145 140 137 148 156 150 164 162 156 191 188 111 164 182 195 352 336 147 138 136 145 138 172 175 165 158 155 155 146 143 165 186 162 147 148 163 183 196 192 196 206 211 210 213 230 242 230 183 203 217 206 228 267 262 280 124 154 248 234 233 252 249 245 246 221 198 218 220 212 222 224 221 219 209 212 214 217
190 188 185 185 178 168 164 161 160 161 156 151 151 150 159 156 109 141 141 105 202 207 79 163 179 87 343 229 164 152 138 139 145 179 181 170 167 169 169 161 160 172 179 158 133 141 186 202 198 194 195 199 212 216 220 238 238 208 146 171 218 222 206 303 313 305 39 156 269 279 228 251 257 252 252 225 209 223 214 205 212 213 215 222 215 216 220 222
185 182 179 181 176 166 162 160 160 160 156 158 163 157 154 151 125 136 131 69 190 219 44 161 184 183 159 179 202 194 167 156 158 187 185 173 183 184 159 166 175 172 170 170 163 165 188 205 199 191 184 194 223 226 220 239 243 213 130 132 218 226 170 254 286 286 4 155 211 31 279 266 266 267 263 237 225 228 214 212 215 208 209 214 211 211 210 209
178 176 176 176 171 165 161 157 156 159 163 166 163 151 153 150 141 140 124 57 168 221 206 175 182 194 174 167 202 218 199 168 158 180 184 174 169 171 163 170 171 173 185 181 172 170 177 183 185 177 177 199 219 228 215 218 248 249 176 154 208 211 183 201 175 139 4 342 2 64 351 296 257 254 258 244 239 242 219 213 224 226 221 218 217 217 211 205
173 171 172 170 167 163 157 153 156 162 165 165 157 152 154 153 150 141 112 67 164 201 174 174 189 192 174 169 198 209 174 179 188 176 179 175 161 149 165 173 172 184 189 178 166 173 191 183 175 178 183 195 204 217 207 191 211 261 230 192 185 172 157 125 119 96 42 330 282 120 4 293 288 264 252 255 266 254 227 206 221 230 228 227 227 223 216 213
168 167 167 167 164 157 153 152 162 161 159 166 164 158 155 154 152 139 106 47 184 152 145 162 180 177 167 170 195 179 148 202 286 157 167 177 176 146 161 171 163 185 181 170 164 180 197 158 167 182 185 185 196 214 211 180 172 231 247 192 147 131 120 130 141 113 109 242 281 113 160 258 314 305 261 262 258 254 245 222 227 228 224 225 224 221 212 208
165 165 164 163 159 155 154 155 157 156 159 171 166 162 160 161 159 138 101 40 205 156 141 147 166 171 169 177 177 158 171 182 98 141 170 179 182 107 161 179 151 174 173 149 177 215 146 128 167 181 176 178 190 210 211 165 142 218 243 137 123 127 136 154 156 142 183 215 323 24 131 220 294 280 269 274 262 278 279 245 242 234 226 229 224 220 210 204
163 163 162 160 158 161 161 152 154 162 165 157 158 162 163 165 166 129 104 169 183 133 140 154 170 169 163 174 176 171 191 157 125 178 187 164 168 69 146 193 170 167 180 159 184 248 141 156 177 171 163 180 190 201 191 149 141 234 224 138 136 146 149 151 141 133 105 104 303 309 104 196 269 274 295 314 283 289 279 249 247 237 229 228 223 220 216 214
162 161 160 159 160 162 158 154 158 160 153 149 153 158 158 160 157 87 141 184 143 118 143 148 159 163 146 158 190 225 148 149 133 171 157 155 189 65 149 196 153 140 51 139 168 220 197 179 179 164 169 186 179 191 183 156 166 218 165 102 83 83 99 109 123 122 65 76 246 259 207 183 273 282 299 325 273 259 258 252 249 240 235 232 228 226 216 206
161 160 159 158 157 153 147 151 154 147 147 148 149 149 147 149 138 138 193 194 126 139 147 149 167 161 151 163 192 190 148 128 88 128 124 148 161 32 138 153 101 114 36 33 107 256 290 259 143 152 177 176 142 125 168 162 154 137 95 67 49 33 40 48 65 96 88 274 251 243 209 173 270 282 247 226 229 222 228 251 262 257 249 231 223 212 192 177
159 159 158 158 157 151 146 144 151 150 150 148 145 142 138 134 131 173 185 160 116 147 149 149 156 152 161 170 182 175 144 94 131 142 149 159 135 63 164 130 92 98 76 49 40 341 358 30 345 324 281 137 106 82 24 72 123 111 95 95 82 1 15 22 2 56 159 254 263 269 236 173 224 265 248 247 261 235 209 223 244 252 253 229 206 195 187 181
157 158 159 158 156 152 150 151 154 153 153 150 145 142 142 139 211 191 162 145 149 176 166 157 160 164 172 174 174 166 138 121 162 155 157 162 170 189 182 175 167 134 154 167 93 19 8 349 296 335 315 143 114 104 33 21 78 97 115 123 124 6 28 21 293 277 220 246 263 300 303 203 232 255 263 269 274 262 227 213 216 212 218 220 209 203 199 190
158 158 157 156 152 149 147 149 151 152 152 151 144 143 156 159 184 187 156 166 178 170 165 165 166 166 168 169 171 162 127 128 169 157 149 147 160 196 224 217 183 152 169 175 134 125 346 311 311 6 327 259 145 146 136 147 128 128 147 142 145 138 92 204 247 265 252 260 275 296 278 257 274 265 253 252 257 259 238 224 220 197 193 201 201 199 198 199
156 155 151 149 147 143 145 148 152 152 150 149 146 153 163 169 180 175 169 183 163 150 157 158 156 157 163 167 171 163 118 78 163 150 142 142 154 196 224 231 198 137 114 151 164 165 165 254 251 174 229 290 186 183 155 152 157 171 167 140 153 164 148 187 208 197 224 263 286 296 262 200 206 256 246 240 262 282 242 220 220 192 195 183 177 185 190 209
150 146 139 138 138 139 146 150 154 154 149 147 154 160 169 173 178 176 173 170 142 143 146 146 147 152 164 167 171 175 151 112 168 148 152 170 177 188 194 208 199 147 128 167 194 153 153 205 279 269 278 122 186 268 90 125 149 215 150 118 165 184 147 150 181 178 173 171 257 251 239 211 206 275 275 256 274 314 353 254 135 154 186 150 160 192 193 207
137 131 130 131 136 142 147 151 156 158 155 151 156 172 186 179 176 173 165 156 153 145 138 143 153 154 160 159 174 189 188 139 161 159 175 182 184 191 189 193 191 171 155 165 170 149 155 222 322 331 343 78 185 262 343 128 174 177 131 165 204 167 119 121 196 163 112 160 244 203 245 282 314 291 291 284 261 276 301 281 222 196 207 172 187 210 204 207
127 122 126 128 140 147 149 153 158 162 164 159 163 179 189 186 173 153 144 140 142 139 138 149 169 166 166 168 177 187 177 137 162 170 173 171 188 197 191 201 194 179 174 163 168 189 153 140 324 10 128 275 223 192 345 354 144 130 162 199 186 110 92 114 162 10 61 212 265 219 217 272 307 265 314 347 265 264 266 248 239 233 220 205 213 216 207 202
124 119 119 130 145 149 152 156 160 164 173 172 175 180 175 188 170 136 132 134 138 143 148 156 174 180 178 170 174 178 164 157 175 173 164 176 215 196 180 195 198 180 189 168 153 195 138 114 311 0 202 273 330 110 165 332 60 147 181 180 126 139 197 144 164 197 184 221 273 284 237 247 212 222 298 312 233 244 246 231 229 235 218 209 219 212 203 187
123 117 100 138 148 150 153 157 161 165 181 182 184 185 167 179 188 144 139 141 146 152 158 165 167 174 181 166 159 167 170 170 169 168 174 183 230 206 177 180 181 179 186 161 151 196 145 128 225 276 270 279 351 130 181 205 331 15 66 92 87 150 177 173 176 164 157 209 250 284 290 256 229 215 227 237 229 230 233 222 220 227 216 207 206 192 188 180
124 111 102 144 150 152 152 154 160 174 191 189 184 188 170 175 187 153 147 145 150 157 162 170 166 156 164 163 156 163 168 158 161 175 200 173 188 216 184 175 167 174 179 167 164 180 149 132 164 275 328 171 192 221 183 175 179 139 135 168 174 104 129 154 214 145 135 172 210 240 269 262 251 214 203 229 238 229 223 216 219 224 214 210 203 184 181 179
122 102 125 148 150 151 149 149 174 186 195 188 175 181 176 161 123 152 154 146 147 162 154 163 166 156 153 158 162 166 155 149 167 176 181 177 181 209 193 175 160 161 168 182 196 179 149 129 136 152 208 184 228 247 193 190 196 175 173 183 183 164 128 149 233 219 152 175 182 192 247 265 257 212 205 233 247 243 229 213 219 226 214 212 202 184 183 178
116 109 144 151 152 153 152 161 189 185 192 186 173 153 162 145 121 153 159 147 146 141 132 155 163 154 153 158 160 162 155 155 176 179 180 191 189 194 191 171 156 159 164 175 195 164 115 105 115 142 202 210 248 264 236 282 276 214 201 187 178 172 138 153 205 217 188 222 173 149 246 267 259 220 210 233 249 262 252 215 221 235 218 205 196 187 186 175
109 113 136 150 156 159 160 173 180 184 210 195 180 50 132 138 133 149 160 155 154 143 138 156 162 160 165 163 155 160 163 163 183 187 174 174 188 202 183 163 152 159 164 160 173 149 88 94 104 80 299 294 303 309 331 3 10 263 273 54 140 188 147 144 177 172 170 207 180 181 251 264 269 257 237 248 263 278 278 233 227 247 222 192 189 188 182 166
108 102 120 154 164 169 173 179 177 182 192 180 143 93 104 109 135 152 162 163 156 146 147 155 166 166 163 158 159 167 169 168 191 193 163 151 183 229 167 163 156 161 174 176 177 176 155 145 125 108 67 348 331 309 304 24 51 270 257 143 143 158 121 127 133 92 200 224 177 180 244 253 266 290 283 280 292 288 279 258 235 236 213 191 189 184 176 162
122 100 74 157 172 179 195 195 180 176 176 166 151 149 134 91 112 148 153 156 145 134 144 152 157 141 125 143 154 167 172 162 167 184 158 144 167 357 169 172 166 169 180 165 160 163 168 173 154 146 168 198 208 213 194 152 111 256 219 188 185 177 165 171 145 121 233 239 165 179 243 251 264 296 305 311 309 285 274 276 268 249 223 205 192 182 176 168
136 125 124 144 182 206 237 273 190 178 174 163 154 158 141 128 74 21 121 151 161 119 121 136 138 119 128 149 145 167 184 145 97 162 158 143 159 334 220 173 165 168 159 143 144 137 134 183 188 186 199 201 190 184 162 149 160 206 208 191 191 191 175 160 141 184 208 216 194 217 239 249 251 251 264 290 281 262 271 284 277 265 254 231 201 185 180 174
135 154 162 152 166 197 220 260 203 187 180 169 161 166 150 140 148 70 75 150 182 130 91 88 150 147 157 160 152 172 181 139 103 153 145 129 153 66 72 100 100 142 143 142 149 129 120 203 207 204 217 197 154 164 165 158 172 195 198 191 190 186 167 165 198 210 182 170 237 232 225 246 252 230 217 249 251 250 260 251 243 239 230 215 191 178 176 171
140 169 184 158 148 182 197 204 195 187 178 170 157 149 147 147 158 163 128 65 168 143 88 110 175 170 164 162 155 160 166 144 138 154 134 123 141 101 44 44 41 71 127 137 153 120 133 203 207 196 213 190 146 168 173 170 182 191 189 190 189 177 171 186 212 215 185 195 239 235 217 244 255 232 212 233 230 230 240 234 223 199 187 189 182 180 182 181
116 134 190 351 11 168 158 159 174 177 172 167 154 154 158 160 164 162 120 107 152 184 128 153 181 176 162 160 152 151 168 168 165 171 146 135 141 121 95 95 47 6 92 135 168 133 151 200 188 176 199 205 183 190 184 173 178 190 195 194 188 183 187 197 210 214 207 218 243 247 238 252 254 237 226 237 223 225 245 218 147 176 191 192 185 187 193 194
123 144 162 74 53 126 110 111 152 168 172 165 155 165 166 164 164 157 121 146 164 188 173 162 173 168 156 160 155 166 183 173 160 166 150 136 149 159 149 163 170 62 76 144 173 191 192 202 168 153 185 225 207 198 192 175 173 188 207 207 200 196 198 204 210 211 209 228 245 250 252 257 256 207 210 247 229 210 212 185 208 214 205 188 185 196 202 202
139 208 151 122 103 122 131 136 144 156 172 176 170 172 170 171 168 150 109 144 163 171 175 161 158 146 143 161 167 176 183 165 156 165 160 155 168 176 171 173 161 151 150 163 160 161 179 196 143 132 173 238 213 173 159 107 112 197 232 223 210 202 202 207 209 203 199 214 231 238 245 253 249 106 216 245 214 175 206 222 229 235 210 189 194 201 204 208
71 341 84 103 79 102 143 145 143 161 176 179 172 165 160 166 163 145 135 14 52 138 153 150 148 141 150 175 188 184 173 155 152 160 154 148 152 146 133 152 157 157 158 155 149 150 150 146 132 146 179 254 232 148 130 88 100 244 243 217 200 204 208 208 218 218 208 205 212 224 238 247 193 141 238 252 205 180 218 222 222 232 218 203 204 205 208 212